Weather History for New Orleans Lakefront, LA

Change the Weather History Date:

Tuesday, November 22, 2011

  Actual Average Record
Temperature  
Mean Temperature 76 °F 61 °F  
Max Temperature 84 °F 70 °F 86 °F (1973)
Min Temperature 68 °F 52 °F 33 °F (2000)
Degree Days  
Heating Degree Days 0 6  
Month to date heating degree days 56 85  
Since 1 July heating degree days 84 110  
Cooling Degree Days 11 2  
Month to date cooling degree days 93 58  
Year to date cooling degree days 3449 2967  
Growing Degree Days 24 (Base 50)    
Moisture  
Dew Point 67 °F    
Average Humidity 76    
Maximum Humidity 93    
Minimum Humidity 58    
Precipitation  
Precipitation 0.62 in 0.15 in 2.05 in (1953)
Month to date precipitation 2.65 3.23  
Year to date precipitation 52.80 55.95  
Snow  
Snow 0.00 in - - ()
Month to date snowfall 0.0  
Since 1 July snowfall 0.0  
Since 1 September snowfall 0.0  
Snow Depth 0.00 in    
Sea Level Pressure  
Sea Level Pressure 30.01 in    
Wind  
Wind Speed 9 mph (SE)    
Max Wind Speed 18 mph    
Max Gust Speed 25 mph    
Visibility 8 miles    
Events Rain    
T = Trace of Precipitation, MM = Missing Value Source: NWS Daily Summary

Daily Weather History Graph

Daily Weather History Graph

Search for Another Location

Airport:

Trip Planner

Search our weather history database for the weather conditions in past years. The results will help you decide how hot, cold, wet, or windy it might be!

Date:

Astronomy

Nov. 22, 2011 Rise Set
Actual Time 6:30 AM CST 5:01 PM CST
Civil Twilight 6:05 AM CST 5:26 PM CST
Nautical Twilight 5:36 AM CST 5:56 PM CST
Astronomical Twilight 5:07 AM CST 6:24 PM CST
Moon 3:30 AM CST (11/22) 2:54 PM CST (11/22)
Length of Visible Light 11h 21m
Length of Day
10h 30m
Waning Crescent, 9% of the Moon is Illuminated
Nov 22
Waning Crescent
Nov 25
New
Dec 2
First Quarter
Dec 10
Full
Dec 17
Last Quarter

Hourly Weather History & Observations

Time (CST) Temp. Heat Index Dew Point Humidity Pressure Visibility Wind Dir Wind Speed Gust Speed Precip Events Conditions
12:53 AM 73.4 °F - 69.8 °F 88% 30.03 in 10.0 mi SSE 13.8 mph - N/A   Overcast
1:53 AM 73.0 °F - 70.0 °F 90% 30.01 in 10.0 mi SSE 11.5 mph - N/A   Overcast
2:34 AM 73.4 °F - 69.8 °F 88% 30.03 in 10.0 mi SSE 8.1 mph - N/A   Overcast
2:53 AM 73.0 °F - 70.0 °F 90% 30.01 in 10.0 mi SSE 13.8 mph - N/A   Overcast
3:06 AM 73.4 °F - 69.8 °F 88% 30.02 in 10.0 mi SSE 10.4 mph - N/A   Overcast
3:09 AM 73.4 °F - 69.8 °F 88% 30.02 in 10.0 mi SSE 12.7 mph - N/A   Overcast
3:36 AM 73.4 °F - 69.8 °F 88% 30.02 in 9.0 mi SSE 8.1 mph - N/A   Mostly Cloudy
3:43 AM 73.4 °F - 69.8 °F 88% 30.02 in 9.0 mi SSE 8.1 mph - N/A   Mostly Cloudy
3:53 AM 73.0 °F - 70.0 °F 90% 30.00 in 9.0 mi SSE 9.2 mph - N/A   Mostly Cloudy
4:09 AM 73.4 °F - 69.8 °F 88% 30.01 in 9.0 mi SSE 9.2 mph - N/A   Mostly Cloudy
4:19 AM 73.4 °F - 69.8 °F 88% 30.01 in 9.0 mi SSE 8.1 mph - N/A   Scattered Clouds
4:35 AM 73.4 °F - 69.8 °F 88% 30.01 in 9.0 mi SSE 9.2 mph - N/A   Mostly Cloudy
4:53 AM 72.0 °F - 69.1 °F 91% 29.98 in 7.0 mi SE 5.8 mph - N/A   Mostly Cloudy
5:21 AM 73.4 °F - 69.8 °F 88% 30.01 in 8.0 mi SSE 6.9 mph - N/A   Overcast
5:53 AM 73.4 °F - 69.8 °F 88% 30.02 in 9.0 mi South 9.2 mph - N/A   Mostly Cloudy
6:53 AM 72.0 °F - 70.0 °F 93% 30.01 in 5.0 mi SSE 8.1 mph - N/A   Overcast
7:07 AM 71.6 °F - 69.8 °F 94% 30.03 in 6.0 mi SSE 8.1 mph - N/A   Overcast
7:53 AM 73.9 °F - 71.1 °F 91% 30.02 in 7.0 mi SSE 10.4 mph - N/A   Overcast
8:09 AM 75.2 °F - 71.6 °F 89% 30.04 in 8.0 mi SSE 10.4 mph - N/A   Overcast
8:53 AM 75.9 °F - 71.1 °F 85% 30.02 in 10.0 mi South 11.5 mph - N/A   Overcast
9:53 AM 78.1 °F - 68.0 °F 71% 30.03 in 10.0 mi SSW 17.3 mph - N/A   Mostly Cloudy
10:53 AM 78.1 °F - 66.0 °F 66% 30.04 in 10.0 mi SW 17.3 mph - N/A   Mostly Cloudy
11:53 AM 80.6 °F 82.7 °F 66.2 °F 61% 30.01 in 10.0 mi SW 10.4 mph - N/A   Mostly Cloudy
12:53 PM 81.0 °F 83.0 °F 66.0 °F 60% 29.98 in 10.0 mi SSW 16.1 mph - N/A   Mostly Cloudy
1:53 PM 80.1 °F 82.1 °F 66.0 °F 62% 29.95 in 10.0 mi SSW 11.5 mph - N/A   Mostly Cloudy
2:53 PM 79.0 °F - 66.9 °F 66% 29.96 in 10.0 mi SSW 11.5 mph - N/A   Partly Cloudy
3:53 PM 73.0 °F - 63.0 °F 71% 29.96 in 10.0 mi North 9.2 mph - N/A   Mostly Cloudy
4:22 PM 71.6 °F - 62.6 °F 73% 30.00 in 10.0 mi NNE 10.4 mph - N/A   Overcast
4:36 PM 69.8 °F - 64.4 °F 83% 29.99 in 6.0 mi ENE 6.9 mph - 0.02 in   Haze
4:53 PM 69.1 °F - 64.9 °F 87% 29.97 in 10.0 mi NE 6.9 mph - 0.03 in   Overcast
4:58 PM 69.8 °F - 64.4 °F 83% 29.99 in 10.0 mi NNE 4.6 mph - N/A   Overcast
5:53 PM 69.1 °F - 64.0 °F 84% 29.99 in 10.0 mi NE 5.8 mph - 0.01 in   Overcast
6:43 PM 68.0 °F - 64.4 °F 88% 30.02 in 10.0 mi NNE 8.1 mph - 0.01 in   Overcast
6:53 PM 68.0 °F - 64.9 °F 90% 29.99 in 10.0 mi ENE 6.9 mph - 0.02 in   Overcast
7:03 PM 66.2 °F - 64.4 °F 94% 30.01 in 1.8 mi East 9.2 mph - 0.15 in Rain Heavy Rain
7:12 PM 66.2 °F - 64.4 °F 94% 30.02 in 3.0 mi East 8.1 mph - 0.16 in Rain Light Rain
7:43 PM 66.2 °F - 64.4 °F 94% 30.04 in 2.5 mi North 4.6 mph - 0.26 in Rain Heavy Rain
7:50 PM 66.2 °F - 64.4 °F 94% 30.03 in 1.2 mi North 10.4 mph - 0.33 in Rain Rain
7:53 PM 66.9 °F - 64.9 °F 93% 30.01 in 1.5 mi North 10.4 mph - 0.33 in Rain Light Rain
7:55 PM 66.2 °F - 64.4 °F 94% 30.03 in 3.0 mi North 11.5 mph - 0.00 in Rain Light Rain
8:02 PM 66.2 °F - 64.4 °F 94% 30.03 in 10.0 mi North 11.5 mph - 0.00 in   Overcast
8:22 PM 66.2 °F - 64.4 °F 94% 30.04 in 1.8 mi North 10.4 mph - 0.15 in Rain Heavy Rain
8:38 PM 66.2 °F - 64.4 °F 94% 30.04 in 2.0 mi NE 3.5 mph - 0.30 in Rain Rain
8:53 PM 66.9 °F - 66.0 °F 97% 30.03 in 2.0 mi Calm Calm - 0.39 in Rain Heavy Rain
9:08 PM 66.2 °F - 66.2 °F 100% 30.04 in 7.0 mi SSE 3.5 mph - 0.03 in Rain Light Rain
9:53 PM 68.0 °F - 66.0 °F 93% 30.03 in 10.0 mi SW 5.8 mph - 0.04 in   Scattered Clouds
10:50 PM 66.2 °F - 64.4 °F 94% 30.05 in 9.0 mi NW 6.9 mph - N/A   Scattered Clouds
10:53 PM 66.9 °F - 64.9 °F 93% 30.03 in 9.0 mi NW 8.1 mph - N/A   Scattered Clouds
11:25 PM 66.2 °F - 64.4 °F 94% 30.06 in 8.0 mi North 5.8 mph - N/A   Mostly Cloudy
11:53 PM 66.9 °F - 64.9 °F 93% 30.04 in 10.0 mi North 3.5 mph - N/A   Overcast